Weather in Pervomayskoye

Russia / Ulyanovsk Oblast     54°01′07″N   45°54′46″E
temp.,
°C
wind,
m/s
gust,
m/s
humid.,
%
clouds,
%
prec.,
mm/h
press.,
hPa
HPBL,
m
13 april, tue
tue1301:00+5e229889 0.0 103419
04:00+5ese1195100 0.0 103410
07:00+5se229471 0.0 103416
10:00+13se38665 0.0 1033363
13:00+17sse46455 0.0 1032916
16:00+18sse464249 0.0 10311163
19:00+13se36601 0.0 103090
22:00+9se226849 0.0 103111
14 april, wed
wed1401:00+7se227210 0.0 103013
04:00+6se22775 0.0 102912
07:00+5ese22782 0.0 102918
10:00+12se47545 0.0 1027398
13:00+16se57420 0.0 1026968
16:00+18se57410 0.0 10241299
19:00+14se37585 0.0 1023161
22:00+10se22765 0.0 102312
15 april, thu
thu1501:00+8se22820 0.0 102212
04:00+7se11880 0.0 102210
07:00+7se11880 0.0 102112
10:00+14se23620 0.0 1020419
13:00+18sse234438 0.0 10191398
16:00+19sse123983 0.0 10171677
19:00+16ene11545 0.0 101711
22:00+12e11676 0.0 101710
16 april, fri
fri1601:00+10ene117587 0.0 101710
04:00+9ene117937 0.0 101710
07:00+9ne228042 0.0 101716
10:00+15ne236047 0.0 1017406
13:00+18nne33505 0.0 10161148
16:00+18nne444418 0.5 10161690
19:00+14ne59695 0.2 1018528
22:00+10ne410839 0.2 1020480
17 april, sat
sat1701:00+8ne5981100 0.0 1021546
04:00+7ne488174 0.0 1022572
07:00+7ne4875100 0.0 1023785
10:00+9ne68513 0.0 10241056
13:00+11ne67370 0.0 10241528
16:00+11ne68375 0.0 10251718
19:00+8ne59464 0.0 10261097
22:00+4ene51148100 0.0 1029704